Le nostre stazioni meteo in Italia

Pubblicità
Il mio iltempo24.it
Pratica Di Mare, Italia (16245): Temperatura & dewpoint: 19.02.2018 06:00:00 - 25.02.2018 06:00:00 (CET)Pratica Di Mare, Italia (16245): velocità del vento: 19.02.2018 06:00:00 - 25.02.2018 06:00:00 (CET)Pratica Di Mare, Italia (16245): direzione del vento: 19.02.2018 06:00:00 - 25.02.2018 06:00:00 (CET)Pratica Di Mare, Italia (16245): reduced air pressure: 19.02.2018 06:00:00 - 25.02.2018 06:00:00 (CET)Pratica Di Mare, Italia (16245): visibility: 19.02.2018 06:00:00 - 25.02.2018 06:00:00 (CET)
Data & Tempo tt [°C] td [°C] ff [km/h] ff [kn] dd ppp [hPa] vv [km]
25.02.2018 06:00:00 8,0 6,0 8 4 NNE - 10
25.02.2018 05:00:00 7,0 6,0 9 5 N - 10
25.02.2018 04:00:00 8,0 6,5 9 5 NE 1006,6 12
25.02.2018 03:00:00 9,0 7,0 11 6 NE - 10
25.02.2018 02:00:00 9,0 7,0 15 8 E - 10
25.02.2018 01:00:00 9,0 7,4 15 8 ESE 1007,6 12
25.02.2018 00:00:00 10,0 8,0 15 8 E - 10
24.02.2018 23:00:00 10,0 8,0 11 6 E - 10
24.02.2018 22:00:00 10,0 7,9 15 8 ESE 1007,5 12
24.02.2018 21:00:00 10,0 8,0 13 7 E - 10
24.02.2018 20:00:00 10,0 9,0 8 4 ENE - 10
24.02.2018 19:00:00 10,2 9,4 8 4 E 1006,6 10
24.02.2018 18:00:00 11,0 10,0 9 5 ENE - 8
24.02.2018 17:00:00 11,0 10,0 13 7 E - 7
24.02.2018 16:00:00 11,8 11,0 15 8 ESE 1005,6 7
24.02.2018 15:00:00 12,0 11,0 8 4 ESE - 10
24.02.2018 14:00:00 12,0 9,0 8 4 S - 10
24.02.2018 13:00:00 12,4 9,8 11 6 SSO 1004,9 8
24.02.2018 12:00:00 11,0 10,0 15 8 OSO - 8
24.02.2018 11:00:00 12,0 11,0 16 9 SO - 6
24.02.2018 10:00:00 11,6 9,9 26 14 ESE 1003,0 10
24.02.2018 09:00:00 11,0 10,0 16 9 E - 10
24.02.2018 08:00:00 11,0 10,0 15 8 E - 8
24.02.2018 07:00:00 10,6 9,7 15 8 ENE 1000,0 8
24.02.2018 06:00:00 10,0 9,0 13 7 ENE - 7
24.02.2018 05:00:00 10,0 9,0 9 5 E - 7
24.02.2018 04:00:00 10,0 9,4 8 4 NE 998,8 6
24.02.2018 03:00:00 10,0 10,0 8 4 E - 7
24.02.2018 02:00:00 10,0 10,0 9 5 ENE - 6
24.02.2018 01:00:00 11,2 10,6 15 8 E 998,4 6
24.02.2018 00:00:00 11,0 10,0 11 6 E - 6
23.02.2018 23:00:00 10,0 9,0 9 5 NNE - 6
23.02.2018 22:00:00 9,8 9,2 9 5 N 997,8 7
23.02.2018 21:00:00 10,0 9,0 13 7 NNE - 8
23.02.2018 20:00:00 10,0 9,0 15 8 NNE - 10
23.02.2018 19:00:00 10,2 9,6 16 9 NE 997,2 10
23.02.2018 18:00:00 10,0 9,0 15 8 NNE - 8
23.02.2018 17:00:00 11,0 10,0 5 3 ENE - 5
23.02.2018 16:00:00 8,8 8,5 21 11 NE 997,4 3,0
23.02.2018 15:00:00 8,0 8,0 18 10 NNE - 5
23.02.2018 14:00:00 8,0 8,0 21 11 N - 6
23.02.2018 13:00:00 8,4 8,1 16 9 N 999,9 6
23.02.2018 12:00:00 9,0 9,0 15 8 N - 5
23.02.2018 11:00:00 9,0 9,0 13 7 N - 10
23.02.2018 10:00:00 10,0 9,2 8 4 NNE 1001,1 10
23.02.2018 09:00:00 10,0 9,0 8 4 ENE - 10
23.02.2018 08:00:00 10,0 8,0 9 5 ENE - 10
23.02.2018 07:00:00 10,2 8,3 11 6 ENE 1000,6 10
23.02.2018 06:00:00 9,0 8,0 13 7 E - 10
23.02.2018 05:00:00 9,0 8,0 13 7 NE - 8
23.02.2018 04:00:00 9,0 7,8 16 9 E 1000,9 10
23.02.2018 03:00:00 8,0 7,0 16 9 E - 10
23.02.2018 02:00:00 9,0 7,0 15 8 E - 10
23.02.2018 01:00:00 9,6 7,9 13 7 SE 1001,0 10
23.02.2018 00:00:00 10,0 8,0 18 10 ESE - 9
22.02.2018 23:00:00 10,0 9,0 22 12 E - 8
22.02.2018 22:00:00 9,2 8,4 24 13 E 1000,1 6
22.02.2018 21:00:00 9,0 8,0 21 11 E - 6
22.02.2018 20:00:00 9,0 9,0 28 15 ESE - 6
22.02.2018 19:00:00 9,6 7,4 31 17 ESE 998,9 6
22.02.2018 18:00:00 9,0 7,0 28 15 E - 6
22.02.2018 17:00:00 9,0 7,0 18 10 ENE - 7
22.02.2018 16:00:00 8,4 7,5 16 9 NE 1000,5 7
22.02.2018 15:00:00 9,0 8,0 16 9 ENE - 7
22.02.2018 14:00:00 9,0 8,0 15 8 E - 6
22.02.2018 13:00:00 8,8 8,2 9 5 E 1001,7 6
22.02.2018 12:00:00 9,0 8,0 9 5 E - 6
22.02.2018 11:00:00 9,0 8,0 22 12 ESE - 7
22.02.2018 10:00:00 9,6 6,3 15 8 ESE 1000,8 12
22.02.2018 09:00:00 9,0 6,0 15 8 E - 10
22.02.2018 08:00:00 8,0 5,0 15 8 E - 10
22.02.2018 07:00:00 6,4 5,8 13 7 ENE 1000,7 10
22.02.2018 06:00:00 5,0 5,0 11 6 ENE - 10
22.02.2018 05:00:00 5,0 4,0 13 7 NE - 10
22.02.2018 04:00:00 5,4 3,9 11 6 NE 1000,7 10
22.02.2018 03:00:00 6,0 5,0 13 7 NE - 10
22.02.2018 02:00:00 7,0 4,0 11 6 NNE - 10
22.02.2018 01:00:00 7,4 4,2 13 7 NNE 1000,7 10
22.02.2018 00:00:00 8,0 4,0 11 6 NNE - 10
21.02.2018 23:00:00 8,0 3,0 15 8 NNE - 10
21.02.2018 22:00:00 7,8 3,8 9 5 NNO 1001,2 10
21.02.2018 21:00:00 8,0 4,0 8 4 NNO - 10
21.02.2018 20:00:00 8,0 3,0 5 3 NNO - 10
21.02.2018 19:00:00 9,4 3,6 9 5 NNO 1000,6 10
21.02.2018 18:00:00 10,0 4,0 13 7 NO - 10
21.02.2018 17:00:00 10,0 5,0 13 7 NO - 10
21.02.2018 16:00:00 11,0 2,6 16 9 ONO 1000,0 10
21.02.2018 15:00:00 10,0 3,0 16 9 ONO - 10
21.02.2018 14:00:00 10,0 4,0 18 10 ONO - 10
21.02.2018 13:00:00 10,2 5,4 13 7 ONO 1001,0 10
21.02.2018 12:00:00 9,0 6,0 11 6 ONO - 10
21.02.2018 11:00:00 7,0 6,0 8 4 N - 10
21.02.2018 10:00:00 7,2 6,3 11 6 N 1002,4 10
21.02.2018 09:00:00 6,0 5,0 13 7 NE - 10
21.02.2018 08:00:00 6,0 3,0 11 6 NNE - 10
21.02.2018 07:00:00 5,4 2,8 16 9 NE 1000,0 10
21.02.2018 06:00:00 6,0 3,0 22 12 NNE - 10
21.02.2018 05:00:00 6,0 3,0 16 9 N - 10
21.02.2018 04:00:00 6,2 3,7 15 8 N 1000,0 10
21.02.2018 03:00:00 6,0 4,0 18 10 NNE - 10
21.02.2018 02:00:00 6,0 4,0 16 9 NNE - 10
21.02.2018 01:00:00 6,4 3,9 15 8 NNE 1002,5 10
21.02.2018 00:00:00 6,0 4,0 15 8 NNE - 10
20.02.2018 23:00:00 6,0 4,0 13 7 NNE - 10
20.02.2018 22:00:00 6,4 3,9 13 7 NNE 1003,3 10
20.02.2018 21:00:00 6,0 4,0 5 3 N - 10
20.02.2018 20:00:00 7,0 3,0 5 3 NNE - 10
20.02.2018 19:00:00 8,2 4,0 8 4 N 1003,8 15
20.02.2018 18:00:00 9,0 3,0 8 4 NNO - 10
20.02.2018 17:00:00 11,0 4,0 13 7 ONO - 10
20.02.2018 16:00:00 11,0 1,5 15 8 O 1004,3 20
20.02.2018 15:00:00 11,0 4,0 15 8 O - 10
20.02.2018 14:00:00 12,0 6,0 16 9 O - 10
20.02.2018 13:00:00 11,6 6,7 11 6 OSO 1005,9 20
20.02.2018 12:00:00 12,0 5,0 5 3 SSO - 10
20.02.2018 11:00:00 10,0 4,0 8 4 NNO - 10
20.02.2018 10:00:00 9,4 7,8 8 4 NNE 1007,7 20
20.02.2018 09:00:00 7,0 6,0 8 4 NNE - 10
20.02.2018 08:00:00 6,0 6,0 11 6 NNE - 10
20.02.2018 07:00:00 6,0 5,3 11 6 NNE 1007,7 12
20.02.2018 06:00:00 6,0 5,0 9 5 NNE - 10
20.02.2018 05:00:00 6,0 5,0 13 7 NNE - 10
20.02.2018 04:00:00 7,0 5,8 11 6 NNE 1008,5 12
20.02.2018 03:00:00 7,0 6,0 13 7 NNE - 10
20.02.2018 02:00:00 7,0 6,0 15 8 NNE - 10
20.02.2018 01:00:00 7,8 6,6 13 7 NNE 1009,4 12
20.02.2018 00:00:00 8,0 7,0 13 7 NNE - 10
19.02.2018 23:00:00 8,0 8,0 15 8 NNE - 10
19.02.2018 22:00:00 8,2 7,9 15 8 NNE 1010,0 10
19.02.2018 21:00:00 9,0 9,0 5 3 NNE - 10
19.02.2018 20:00:00 10,0 9,0 5 3 N - 10
19.02.2018 19:00:00 10,0 9,4 4 2 NE 1010,5 10
19.02.2018 18:00:00 11,0 10,0 5 3 NE - 10
19.02.2018 17:00:00 11,0 10,0 8 4 ONO - 10
19.02.2018 16:00:00 11,8 8,5 11 6 NNO 1010,2 10
19.02.2018 15:00:00 13,0 10,0 4 2 N - 10
19.02.2018 14:00:00 14,0 11,0 11 6 S - 10
19.02.2018 13:00:00 14,2 10,2 11 6 SSO 1011,7 10
19.02.2018 12:00:00 14,0 10,0 2 1 S - 10
19.02.2018 11:00:00 12,0 10,0 9 5 NE - 10
19.02.2018 10:00:00 9,4 8,6 16 9 NNE 1012,1 10
19.02.2018 09:00:00 9,0 8,0 18 10 NNE - 10
19.02.2018 08:00:00 7,0 7,0 16 9 NNE - 8
19.02.2018 07:00:00 6,6 6,3 16 9 NNE 1012,5 8
19.02.2018 06:00:00 7,0 6,0 18 10 NNE - 8

tt = Temperatura
td = dewpoint
ff = velocità del vento
dd = direzione del vento
ppp = reduced air pressure
vv = visibility

Stazioni seguenti

WeatherPro
AMSI
MeteoEarth